When you browse on this site, cookies collect data to enhance your experience and personalize the content and advertising you see.
Visit our Privacy Policy to learn more. By continuing to use the site, you agree to this use of cookies and data.
  • In Czech Republic
  • List of Countries
  • For 7 days
  • Water Temperature
  • Satellite Maps
  • Weather Map
  • Weather Widgets
  • user-avatar
    Login

    Hourly Weather Kozhla

    Today, 21 November, Wednesday

    Time Temperature Precipitation Wind Pressure Humidity
    00:00 -6°C° 0 mm 5 mps 756 mmHg 76%
    01:00 -6°C° 0 mm 5 mps 755 mmHg 75%
    02:00 -6°C° 0 mm 5 mps 754 mmHg 74%
    03:00 -6°C° 0 mm 5 mps 754 mmHg 77%
    04:00 -6°C° 0 mm 5 mps 754 mmHg 77%
    05:00 -6°C° 0 mm 5 mps 753 mmHg 78%
    06:00 -6°C° 0 mm 5 mps 753 mmHg 79%
    07:00 -5°C° 0.1 mm 5 mps 752 mmHg 80%
    08:00 -5°C° 0.1 mm 6 mps 752 mmHg 81%
    09:00 -5°C° 0 mm 6 mps 751 mmHg 82%
    10:00 -4°C° 0.1 mm 6 mps 751 mmHg 81%
    11:00 -4°C° 0.1 mm 6 mps 751 mmHg 80%
    12:00 -3°C° 0.1 mm 6 mps 751 mmHg 79%
    13:00 -3°C° 0.1 mm 6 mps 751 mmHg 77%
    14:00 -3°C° 0.1 mm 6 mps 751 mmHg 75%
    15:00 -3°C° 0 mm 4 mps 751 mmHg 78%
    16:00 -3°C° 0.1 mm 4 mps 751 mmHg 78%
    17:00 -5°C° 0.1 mm 5 mps 752 mmHg 79%
    18:00 -5°C° 0.1 mm 5 mps 752 mmHg 79%
    19:00 -6°C° 0 mm 5 mps 752 mmHg 80%
    20:00 -6°C° 0 mm 5 mps 752 mmHg 80%
    21:00 -7°C° 0 mm 5 mps 752 mmHg 80%
    22:00 -7°C° 0 mm 5 mps 752 mmHg 81%
    23:00 -7°C° 0 mm 4 mps 752 mmHg 82%

    Tomorrow, 22 November, Thursday

    Time Temperature Precipitation Wind Pressure Humidity
    00:00 -7°C° 0 mm 4 mps 752 mmHg 83%
    01:00 -8°C° 0 mm 4 mps 751 mmHg 85%
    02:00 -8°C° 0 mm 4 mps 751 mmHg 86%
    03:00 -8°C° 0 mm 4 mps 751 mmHg 88%
    04:00 -8°C° 0 mm 4 mps 751 mmHg 89%
    05:00 -8°C° 0 mm 4 mps 750 mmHg 90%
    06:00 -8°C° 0 mm 4 mps 750 mmHg 90%
    07:00 -8°C° 0 mm 5 mps 749 mmHg 88%
    08:00 -7°C° 0 mm 5 mps 748 mmHg 86%
    09:00 -8°C° 0 mm 6 mps 748 mmHg 83%
    10:00 -6°C° 0.1 mm 6 mps 747 mmHg 81%
    11:00 -7°C° 0.1 mm 7 mps 746 mmHg 79%
    12:00 -7°C° 0.1 mm 8 mps 745 mmHg 77%
    13:00 -7°C° 0.3 mm 8 mps 744 mmHg 79%
    14:00 -6°C° 0.3 mm 8 mps 743 mmHg 81%
    15:00 -6°C° 0.3 mm 8 mps 742 mmHg 84%
    16:00 -6°C° 0.2 mm 7 mps 742 mmHg 85%
    17:00 -4°C° 0.2 mm 6 mps 742 mmHg 86%
    18:00 -4°C° 0.2 mm 6 mps 741 mmHg 88%
    19:00 -4°C° 0.3 mm 5 mps 741 mmHg 88%
    20:00 -4°C° 0.3 mm 4 mps 741 mmHg 88%
    21:00 -4°C° 0.3 mm 4 mps 740 mmHg 89%
    22:00 -5°C° 0.3 mm 4 mps 741 mmHg 89%
    23:00 -5°C° 0.3 mm 4 mps 741 mmHg 88%

    Day after tomorrow, 23 November, Friday

    Time Temperature Precipitation Wind Pressure Humidity
    00:00 -7°C° 0.3 mm 4 mps 741 mmHg 88%
    01:00 -7°C° 0.3 mm 5 mps 741 mmHg 86%
    02:00 -8°C° 0.3 mm 5 mps 742 mmHg 85%
    03:00 -9°C° 0.3 mm 6 mps 743 mmHg 83%
    04:00 -9°C° 0.1 mm 6 mps 744 mmHg 81%
    05:00 -10°C° 0.1 mm 6 mps 745 mmHg 79%
    06:00 -10°C° 0.1 mm 6 mps 746 mmHg 77%
    07:00 -10°C° 0 mm 6 mps 747 mmHg 78%
    08:00 -10°C° 0 mm 5 mps 749 mmHg 80%
    09:00 -11°C° 0 mm 5 mps 750 mmHg 81%
    10:00 -10°C° 0.1 mm 6 mps 750 mmHg 79%
    11:00 -10°C° 0.1 mm 6 mps 751 mmHg 78%
    12:00 -9°C° 0.1 mm 7 mps 752 mmHg 76%
    13:00 -10°C° 0 mm 6 mps 752 mmHg 76%
    14:00 -10°C° 0 mm 6 mps 753 mmHg 76%
    15:00 -10°C° 0 mm 6 mps 754 mmHg 76%
    16:00 -10°C° 0 mm 5 mps 754 mmHg 78%
    17:00 -11°C° 0 mm 5 mps 755 mmHg 79%
    18:00 -11°C° 0 mm 5 mps 755 mmHg 81%
    19:00 -11°C° 0 mm 5 mps 755 mmHg 82%
    20:00 -10°C° 0 mm 4 mps 756 mmHg 83%
    21:00 -10°C° 0 mm 4 mps 756 mmHg 83%
    22:00 -10°C° 0.1 mm 4 mps 756 mmHg 84%
    23:00 -10°C° 0.1 mm 5 mps 756 mmHg 85%

    24 November, Saturday

    Time Temperature Precipitation Wind Pressure Humidity
    00:00 -10°C° 0.1 mm 5 mps 756 mmHg 86%
    01:00 -10°C° 0 mm 5 mps 756 mmHg 86%
    02:00 -10°C° 0 mm 5 mps 755 mmHg 86%
    03:00 -10°C° 0 mm 5 mps 755 mmHg 87%
    04:00 -10°C° 0 mm 5 mps 755 mmHg 87%
    05:00 -10°C° 0 mm 5 mps 755 mmHg 88%
    06:00 -10°C° 0 mm 5 mps 754 mmHg 88%
    07:00 -10°C° 0 mm 5 mps 754 mmHg 88%
    08:00 -10°C° 0 mm 5 mps 754 mmHg 88%
    09:00 -10°C° 0 mm 6 mps 754 mmHg 88%
    10:00 -9°C° 0 mm 6 mps 753 mmHg 86%
    11:00 -8°C° 0 mm 7 mps 753 mmHg 85%
    12:00 -8°C° 0 mm 7 mps 752 mmHg 83%
    13:00 -7°C° 0.1 mm 7 mps 752 mmHg 83%
    14:00 -6°C° 0.1 mm 6 mps 752 mmHg 83%
    15:00 -5°C° 0.1 mm 6 mps 752 mmHg 83%
    16:00 -5°C° 0 mm 6 mps 752 mmHg 83%
    17:00 -5°C° 0 mm 6 mps 751 mmHg 83%
    18:00 -5°C° 0 mm 6 mps 751 mmHg 84%
    19:00 -6°C° 0 mm 6 mps 751 mmHg 85%
    20:00 -6°C° 0 mm 6 mps 751 mmHg 85%
    21:00 -6°C° 0 mm 5 mps 751 mmHg 86%
    22:00 -6°C° 0 mm 5 mps 751 mmHg 86%
    23:00 -6°C° 0 mm 5 mps 751 mmHg 86%

    25 November, Sunday

    Time Temperature Precipitation Wind Pressure Humidity
    00:00 -5°C° 0 mm 5 mps 751 mmHg 85%
    01:00 -5°C° 0.1 mm 5 mps 750 mmHg 86%
    02:00 -5°C° 0.1 mm 6 mps 750 mmHg 87%
    03:00 -5°C° 0.1 mm 6 mps 750 mmHg 87%
    04:00 -5°C° 0.2 mm 6 mps 749 mmHg 88%
    05:00 -5°C° 0.2 mm 6 mps 749 mmHg 88%
    06:00 -5°C° 0.2 mm 6 mps 749 mmHg 89%
    07:00 -5°C° 0.2 mm 6 mps 749 mmHg 88%
    08:00 -5°C° 0.2 mm 6 mps 749 mmHg 87%
    09:00 -5°C° 0.2 mm 6 mps 749 mmHg 87%
    10:00 -4°C° 0 mm 6 mps 750 mmHg 85%
    11:00 -4°C° 0 mm 6 mps 750 mmHg 82%
    12:00 -4°C° 0 mm 6 mps 751 mmHg 80%
    13:00 -4°C° 0 mm 5 mps 751 mmHg 82%
    14:00 -4°C° 0 mm 4 mps 752 mmHg 83%
    15:00 -4°C° 0 mm 4 mps 752 mmHg 84%
    16:00 -5°C° 0 mm 3 mps 753 mmHg 86%
    17:00 -5°C° 0 mm 3 mps 753 mmHg 88%
    18:00 -6°C° 0 mm 3 mps 754 mmHg 90%
    19:00 -5°C° 0 mm 2 mps 754 mmHg 91%
    20:00 -6°C° 0 mm 2 mps 754 mmHg 92%
    21:00 -6°C° 0 mm 2 mps 754 mmHg 93%
    22:00 -7°C° 0 mm 2 mps 754 mmHg 93%
    23:00 -7°C° 0 mm 2 mps 754 mmHg 94%

    26 November, Monday

    Time Temperature Precipitation Wind Pressure Humidity
    00:00 -7°C° 0 mm 2 mps 754 mmHg 94%
    01:00 -7°C° 0 mm 2 mps 754 mmHg 94%
    02:00 -7°C° 0 mm 2 mps 754 mmHg 94%
    03:00 -7°C° 0 mm 2 mps 754 mmHg 94%
    04:00 -7°C° 0 mm 2 mps 753 mmHg 93%
    05:00 -7°C° 0 mm 2 mps 753 mmHg 93%
    06:00 -7°C° 0 mm 2 mps 753 mmHg 93%
    07:00 -7°C° 0 mm 2 mps 752 mmHg 93%
    08:00 -6°C° 0 mm 2 mps 752 mmHg 93%
    09:00 -4°C° 0 mm 1 mps 752 mmHg 93%
    10:00 -3°C° 0.1 mm 1 mps 751 mmHg 92%
    11:00 -3°C° 0.1 mm 1 mps 751 mmHg 92%
    12:00 -2°C° 0.1 mm 1 mps 750 mmHg 92%
    13:00 -2°C° 0.3 mm 1 mps 750 mmHg 94%
    14:00 -4°C° 0.3 mm 2 mps 750 mmHg 95%
    15:00 -4°C° 0.3 mm 2 mps 749 mmHg 96%
    16:00 -4°C° 0.3 mm 2 mps 749 mmHg 96%
    17:00 -5°C° 0.3 mm 2 mps 749 mmHg 97%
    18:00 -5°C° 0.3 mm 2 mps 748 mmHg 97%
    19:00 -5°C° 0.1 mm 2 mps 748 mmHg 97%
    20:00 -5°C° 0.1 mm 2 mps 748 mmHg 97%
    21:00 -6°C° 0.1 mm 2 mps 748 mmHg 97%
    22:00 -6°C° 0.1 mm 2 mps 748 mmHg 97%
    23:00 -6°C° 0.1 mm 2 mps 748 mmHg 97%
    Show more